This is the latest recevied weather packets stored in our database for station/object DO7CRZ-11. If no packets are shown the sender has not sent any weather packets the latest 10 day(s).
| Time | Temp. | Humidity | Pressure | Rain* | Wind** | Luminosity | Snow |
|---|---|---|---|---|---|---|---|
| 1777384934 | 15.56° C | 31% | 1023.2 hPa | 0 mm | - | 488 W/m² | - |
| 1777384327 | 16.11° C | 30% | 1023.3 hPa | 0 mm | - | 508 W/m² | - |
| 1777383729 | 16.11° C | 31% | 1023.3 hPa | 0 mm | - | 530 W/m² | - |
| 1777383132 | 16.11° C | 31% | 1023.3 hPa | 0 mm | - | 551 W/m² | - |
| 1777382535 | 16.11° C | 33% | 1023.5 hPa | 0 mm | - | 568 W/m² | - |
| 1777381927 | 15.56° C | 34% | 1023.5 hPa | 0 mm | - | 589 W/m² | - |
| 1777381330 | 15.56° C | 34% | 1023.6 hPa | 0 mm | - | 605 W/m² | - |
| 1777380733 | 15.56° C | 35% | 1023.6 hPa | 0 mm | - | 618 W/m² | - |
| 1777380126 | 15° C | 37% | 1023.5 hPa | 0 mm | - | 633 W/m² | - |
| 1777379529 | 15° C | 37% | 1023.6 hPa | 0 mm | - | 649 W/m² | - |
| 1777378932 | 15° C | 37% | 1023.7 hPa | 0 mm | - | 639 W/m² | - |
| 1777377727 | 15° C | 37% | 1023.7 hPa | 0 mm | - | 643 W/m² | - |
| 1777376533 | 14.44° C | 38% | 1023.7 hPa | 0 mm | - | 709 W/m² | - |
| 1777375926 | 14.44° C | 39% | 1023.8 hPa | 0 mm | - | 667 W/m² | - |
| 1777375329 | 14.44° C | 38% | 1023.8 hPa | 0 mm | - | 663 W/m² | - |
| 1777374732 | 13.89° C | 40% | 1023.8 hPa | 0 mm | - | 682 W/m² | - |
| 1777374134 | 13.89° C | 40% | 1023.8 hPa | 0 mm | - | 695 W/m² | - |
| 1777373527 | 13.89° C | 40% | 1023.8 hPa | 0 mm | - | 646 W/m² | - |
| 1777372333 | 13.33° C | 41% | 1023.8 hPa | 0 mm | - | 659 W/m² | - |
| 1777371736 | 13.33° C | 40% | 1023.9 hPa | 0 mm | - | 684 W/m² | - |
| 1777371129 | 13.33° C | 40% | 1024 hPa | 0 mm | - | 622 W/m² | - |
| 1777370532 | 13.33° C | 41% | 1023.9 hPa | 0 mm | - | 682 W/m² | - |
| 1777369328 | 12.78° C | 41% | 1023.8 hPa | 0 mm | - | 660 W/m² | - |
| 1777368731 | 12.78° C | 42% | 1023.9 hPa | 0 mm | - | 650 W/m² | - |
| 1777367536 | 12.22° C | 42% | 1023.9 hPa | 0 mm | - | 605 W/m² | - |
* Rain latest hour (hover to see other rain measurements)
** Current wind speed in m/s (hover to see current wind gust speed)